Year,Month,Day,Hour,Minute,Value (Times are PST for temperature in C)
2013,05,01,00,00,7.00
2013,05,01,00,01,7.00
2013,05,01,00,02,7.00
2013,05,01,00,03,7.00
2013,05,01,00,04,7.00
2013,05,01,00,05,7.00
2013,05,01,00,06,7.00
2013,05,01,00,07,7.00
2013,05,01,00,08,6.90
2013,05,01,00,09,6.90
2013,05,01,00,10,6.90
2013,05,01,00,11,6.90
2013,05,01,00,12,6.90
2013,05,01,00,13,6.90
2013,05,01,00,14,6.90
2013,05,01,00,15,6.90
2013,05,01,00,16,6.90
2013,05,01,00,17,6.80
2013,05,01,00,18,6.80
2013,05,01,00,19,6.80
2013,05,01,00,20,6.80
2013,05,01,00,21,6.80
2013,05,01,00,22,6.80
2013,05,01,00,23,6.80
2013,05,01,00,24,6.70
2013,05,01,00,25,6.70
2013,05,01,00,26,6.70
2013,05,01,00,27,6.70
2013,05,01,00,28,6.70
2013,05,01,00,29,6.70
2013,05,01,00,30,6.70
2013,05,01,00,31,6.70
2013,05,01,00,32,6.70
2013,05,01,00,33,6.60
2013,05,01,00,34,6.60
2013,05,01,00,35,6.60
2013,05,01,00,36,6.60
2013,05,01,00,37,6.60
2013,05,01,00,38,6.60
2013,05,01,00,39,6.60
2013,05,01,00,40,6.60
2013,05,01,00,41,6.60
2013,05,01,00,42,6.60
2013,05,01,00,43,6.60
2013,05,01,00,44,6.50
2013,05,01,00,45,6.40
2013,05,01,00,46,6.40
2013,05,01,00,47,6.40
2013,05,01,00,48,6.40
2013,05,01,00,49,6.40
2013,05,01,00,50,6.40
2013,05,01,00,51,6.40
2013,05,01,00,52,6.40
2013,05,01,00,53,6.40
2013,05,01,00,54,6.40
2013,05,01,00,55,6.40
2013,05,01,00,56,6.40
2013,05,01,00,57,6.40
2013,05,01,00,58,6.40
2013,05,01,00,59,6.40
2013,05,01,01,00,6.40
2013,05,01,01,01,6.40
2013,05,01,01,02,6.40
2013,05,01,01,03,6.40
2013,05,01,01,04,6.50
2013,05,01,01,05,6.60
2013,05,01,01,06,6.60
2013,05,01,01,07,6.60
2013,05,01,01,08,6.60
2013,05,01,01,09,6.60
2013,05,01,01,10,6.60
2013,05,01,01,11,6.60
2013,05,01,01,12,6.60
2013,05,01,01,13,6.60
2013,05,01,01,14,6.60
2013,05,01,01,15,6.60
2013,05,01,01,16,6.60
2013,05,01,01,17,6.60
2013,05,01,01,18,6.50
2013,05,01,01,19,6.40
2013,05,01,01,20,6.40
2013,05,01,01,21,6.40
2013,05,01,01,22,6.40
2013,05,01,01,23,6.30
2013,05,01,01,24,6.30
2013,05,01,01,25,6.30
2013,05,01,01,26,6.20
2013,05,01,01,27,6.20
2013,05,01,01,28,6.20
2013,05,01,01,29,6.20
2013,05,01,01,30,6.20
2013,05,01,01,31,6.20
2013,05,01,01,32,6.20
2013,05,01,01,33,6.10
2013,05,01,01,34,6.00
2013,05,01,01,35,6.00
2013,05,01,01,36,6.00
2013,05,01,01,37,6.10
2013,05,01,01,38,6.10
2013,05,01,01,39,6.00
2013,05,01,01,40,6.00
2013,05,01,01,41,6.00
2013,05,01,01,42,6.00
2013,05,01,01,43,6.00
2013,05,01,01,44,6.00
2013,05,01,01,45,6.00
2013,05,01,01,46,6.00
2013,05,01,01,47,5.90
2013,05,01,01,48,5.90
2013,05,01,01,49,5.90
2013,05,01,01,50,5.90
2013,05,01,01,51,5.90
2013,05,01,01,52,5.90
2013,05,01,01,53,5.90
2013,05,01,01,54,5.90
2013,05,01,01,55,5.90
2013,05,01,01,56,5.80
2013,05,01,01,57,5.80
2013,05,01,01,58,5.80
2013,05,01,01,59,5.80
2013,05,01,02,00,5.80
2013,05,01,02,01,5.70
2013,05,01,02,02,5.70
2013,05,01,02,03,5.70
2013,05,01,02,04,5.70
2013,05,01,02,05,5.70
2013,05,01,02,06,5.70
2013,05,01,02,07,5.60
2013,05,01,02,08,5.60
2013,05,01,02,09,5.60
2013,05,01,02,10,5.50
2013,05,01,02,11,5.50
2013,05,01,02,12,5.50
2013,05,01,02,13,5.40
2013,05,01,02,14,5.40
2013,05,01,02,15,5.40
2013,05,01,02,16,5.50
2013,05,01,02,17,5.50
2013,05,01,02,18,5.50
2013,05,01,02,19,5.50
2013,05,01,02,20,5.50
2013,05,01,02,21,5.50
2013,05,01,02,22,5.50
2013,05,01,02,23,5.50
2013,05,01,02,24,5.50
2013,05,01,02,25,5.50
2013,05,01,02,26,5.50
2013,05,01,02,27,5.60
2013,05,01,02,28,5.60
2013,05,01,02,29,5.60
2013,05,01,02,30,5.60
2013,05,01,02,31,5.60
2013,05,01,02,32,5.60
2013,05,01,02,33,5.60
2013,05,01,02,34,5.60
2013,05,01,02,35,5.60
2013,05,01,02,36,5.60
2013,05,01,02,37,5.60
2013,05,01,02,38,5.60
2013,05,01,02,39,5.60
2013,05,01,02,40,5.60
2013,05,01,02,41,5.60
2013,05,01,02,42,5.50
2013,05,01,02,43,5.50
2013,05,01,02,44,5.50
2013,05,01,02,45,5.40
2013,05,01,02,46,5.30
2013,05,01,02,47,5.30
2013,05,01,02,48,5.30
2013,05,01,02,49,5.20
2013,05,01,02,50,5.10
2013,05,01,02,51,5.10
2013,05,01,02,52,5.00
2013,05,01,02,53,4.90
2013,05,01,02,54,4.80
2013,05,01,02,55,4.80
2013,05,01,02,56,4.70
2013,05,01,02,57,4.60
2013,05,01,02,58,4.60
2013,05,01,02,59,4.50
2013,05,01,03,00,4.50
2013,05,01,03,01,4.40
2013,05,01,03,02,4.40
2013,05,01,03,03,4.30
2013,05,01,03,04,4.30
2013,05,01,03,05,4.20
2013,05,01,03,06,4.20
2013,05,01,03,07,4.10
2013,05,01,03,08,4.10
2013,05,01,03,09,4.00
2013,05,01,03,10,4.00
2013,05,01,03,11,3.90
2013,05,01,03,12,3.80
2013,05,01,03,13,3.80
2013,05,01,03,14,3.70
2013,05,01,03,15,3.60
2013,05,01,03,16,3.60
2013,05,01,03,17,3.50
2013,05,01,03,18,3.50
2013,05,01,03,19,3.50
2013,05,01,03,20,3.40
2013,05,01,03,21,3.40
2013,05,01,03,22,3.40
2013,05,01,03,23,3.30
2013,05,01,03,24,3.30
2013,05,01,03,25,3.30
2013,05,01,03,26,3.30
2013,05,01,03,27,3.30
2013,05,01,03,28,3.30
2013,05,01,03,29,3.30
2013,05,01,03,30,3.30
2013,05,01,03,31,3.30
2013,05,01,03,32,3.20
2013,05,01,03,33,3.20
2013,05,01,03,34,3.20
2013,05,01,03,35,3.10
2013,05,01,03,36,3.10
2013,05,01,03,37,3.10
2013,05,01,03,38,3.10
2013,05,01,03,39,3.10
2013,05,01,03,40,3.10
2013,05,01,03,41,3.00
2013,05,01,03,42,2.90
2013,05,01,03,43,2.90
2013,05,01,03,44,2.90
2013,05,01,03,45,2.90
2013,05,01,03,46,2.90
2013,05,01,03,47,2.90
2013,05,01,03,48,2.90
2013,05,01,03,49,2.90
2013,05,01,03,50,2.90
2013,05,01,03,51,2.90
2013,05,01,03,52,2.90
2013,05,01,03,53,2.90
2013,05,01,03,54,2.80
2013,05,01,03,55,2.80
2013,05,01,03,56,2.80
2013,05,01,03,57,2.80
2013,05,01,03,58,2.80
2013,05,01,03,59,2.80
2013,05,01,04,00,2.80
2013,05,01,04,01,2.80
2013,05,01,04,02,2.70
2013,05,01,04,03,2.70
2013,05,01,04,04,2.70
2013,05,01,04,05,2.70
2013,05,01,04,06,2.70
2013,05,01,04,07,2.70
2013,05,01,04,08,2.70
2013,05,01,04,09,2.70
2013,05,01,04,10,2.70
2013,05,01,04,11,2.70
2013,05,01,04,12,2.70
2013,05,01,04,13,2.70
2013,05,01,04,14,2.70
2013,05,01,04,15,2.70
2013,05,01,04,16,2.60
2013,05,01,04,17,2.60
2013,05,01,04,18,2.60
2013,05,01,04,19,2.60
2013,05,01,04,20,2.60
2013,05,01,04,21,2.60
2013,05,01,04,22,2.50
2013,05,01,04,23,2.50
2013,05,01,04,24,2.50
2013,05,01,04,25,2.50
2013,05,01,04,26,2.40
2013,05,01,04,27,2.40
2013,05,01,04,28,2.40
2013,05,01,04,29,2.30
2013,05,01,04,30,2.30
2013,05,01,04,31,2.30
2013,05,01,04,32,2.30
2013,05,01,04,33,2.30
2013,05,01,04,34,2.30
2013,05,01,04,35,2.20
2013,05,01,04,36,2.20
2013,05,01,04,37,2.20
2013,05,01,04,38,2.20
2013,05,01,04,39,2.20
2013,05,01,04,40,2.20
2013,05,01,04,41,2.20
2013,05,01,04,42,2.20
2013,05,01,04,43,2.20
2013,05,01,04,44,2.20
2013,05,01,04,45,2.20
2013,05,01,04,46,2.20
2013,05,01,04,47,2.20
2013,05,01,04,48,2.20
2013,05,01,04,49,2.20
2013,05,01,04,50,2.20
2013,05,01,04,51,2.20
2013,05,01,04,52,2.20
2013,05,01,04,53,2.20
2013,05,01,04,54,2.20
2013,05,01,04,55,2.20
2013,05,01,04,56,2.20
2013,05,01,04,57,2.20
2013,05,01,04,58,2.20
2013,05,01,04,59,2.10
2013,05,01,05,00,2.10
2013,05,01,05,01,2.10
2013,05,01,05,02,2.10
2013,05,01,05,03,2.10
2013,05,01,05,04,2.10
2013,05,01,05,05,2.10
2013,05,01,05,06,2.10
2013,05,01,05,07,2.10
2013,05,01,05,08,2.00
2013,05,01,05,09,2.00
2013,05,01,05,10,2.00
2013,05,01,05,11,2.10
2013,05,01,05,12,2.10
2013,05,01,05,13,2.10
2013,05,01,05,14,2.10
2013,05,01,05,15,2.10
2013,05,01,05,16,2.10
2013,05,01,05,17,2.10
2013,05,01,05,18,2.10
2013,05,01,05,19,2.10
2013,05,01,05,20,2.10
2013,05,01,05,21,2.00
2013,05,01,05,22,2.00
2013,05,01,05,23,2.00
2013,05,01,05,24,2.00
2013,05,01,05,25,2.00
2013,05,01,05,26,1.90
2013,05,01,05,27,1.90
2013,05,01,05,28,1.90
2013,05,01,05,29,1.90
2013,05,01,05,30,1.90
2013,05,01,05,31,1.90
2013,05,01,05,32,1.80
2013,05,01,05,33,1.80
2013,05,01,05,34,1.80
2013,05,01,05,35,1.80
2013,05,01,05,36,1.80
2013,05,01,05,37,1.80
2013,05,01,05,38,1.80
2013,05,01,05,39,1.80
2013,05,01,05,40,1.80
2013,05,01,05,41,1.80
2013,05,01,05,42,1.80
2013,05,01,05,43,1.80
2013,05,01,05,44,1.80
2013,05,01,05,45,1.70
2013,05,01,05,46,1.70
2013,05,01,05,47,1.70
2013,05,01,05,48,1.70
2013,05,01,05,49,1.70
2013,05,01,05,50,1.70
2013,05,01,05,51,1.70
2013,05,01,05,52,1.70
2013,05,01,05,53,1.70
2013,05,01,05,54,1.70
2013,05,01,05,55,1.70
2013,05,01,05,56,1.70
2013,05,01,05,57,1.70
2013,05,01,05,58,1.60
2013,05,01,05,59,1.60
2013,05,01,06,00,1.60
2013,05,01,06,01,1.60
2013,05,01,06,02,1.60
2013,05,01,06,03,1.60
2013,05,01,06,04,1.60
2013,05,01,06,05,1.60
2013,05,01,06,06,1.60
2013,05,01,06,07,1.60
2013,05,01,06,08,1.60
2013,05,01,06,09,1.60
2013,05,01,06,10,1.60
2013,05,01,06,11,1.60
2013,05,01,06,12,1.60
2013,05,01,06,13,1.60
2013,05,01,06,14,1.70
2013,05,01,06,15,1.70
2013,05,01,06,16,1.70
2013,05,01,06,17,1.70
2013,05,01,06,18,1.70
2013,05,01,06,19,1.80
2013,05,01,06,20,1.80
2013,05,01,06,21,1.80
2013,05,01,06,22,1.80
2013,05,01,06,23,1.80
2013,05,01,06,24,1.80
2013,05,01,06,25,1.80
2013,05,01,06,26,1.80
2013,05,01,06,27,1.80
2013,05,01,06,28,1.90
2013,05,01,06,29,1.90
2013,05,01,06,30,2.00
2013,05,01,06,31,2.00
2013,05,01,06,32,2.10
2013,05,01,06,33,2.10
2013,05,01,06,34,2.10
2013,05,01,06,35,2.20
2013,05,01,06,36,2.20
2013,05,01,06,37,2.20
2013,05,01,06,38,2.20
2013,05,01,06,39,2.20
2013,05,01,06,40,2.30
2013,05,01,06,41,2.30
2013,05,01,06,42,2.40
2013,05,01,06,43,2.40
2013,05,01,06,44,2.50
2013,05,01,06,45,2.50
2013,05,01,06,46,2.50
2013,05,01,06,47,2.60
2013,05,01,06,48,2.60
2013,05,01,06,49,2.60
2013,05,01,06,50,2.60
2013,05,01,06,51,2.70
2013,05,01,06,52,2.70
2013,05,01,06,53,2.70
2013,05,01,06,54,2.70
2013,05,01,06,55,2.70
2013,05,01,06,56,2.70
2013,05,01,06,57,2.70
2013,05,01,06,58,2.70
2013,05,01,06,59,2.70
2013,05,01,07,00,2.70
2013,05,01,07,01,2.70
2013,05,01,07,02,2.70
2013,05,01,07,03,2.70
2013,05,01,07,04,2.70
2013,05,01,07,05,2.70
2013,05,01,07,06,2.70
2013,05,01,07,07,2.70
2013,05,01,07,08,2.70
2013,05,01,07,09,2.70
2013,05,01,07,10,2.80
2013,05,01,07,11,2.80
2013,05,01,07,12,2.80
2013,05,01,07,13,2.90
2013,05,01,07,14,2.90
2013,05,01,07,15,3.00
2013,05,01,07,16,3.10
2013,05,01,07,17,3.20
2013,05,01,07,18,3.30
2013,05,01,07,19,3.40
2013,05,01,07,20,3.50
2013,05,01,07,21,3.60
2013,05,01,07,22,3.70
2013,05,01,07,23,3.80
2013,05,01,07,24,3.90
2013,05,01,07,25,4.00
2013,05,01,07,26,4.00
2013,05,01,07,27,4.10
2013,05,01,07,28,4.10
2013,05,01,07,29,4.10
2013,05,01,07,30,4.10
2013,05,01,07,31,4.20
2013,05,01,07,32,4.20
2013,05,01,07,33,4.20
2013,05,01,07,34,4.20
2013,05,01,07,35,4.20
2013,05,01,07,36,4.30
2013,05,01,07,37,4.40
2013,05,01,07,38,4.40
2013,05,01,07,39,4.40
2013,05,01,07,40,4.40
2013,05,01,07,41,4.50
2013,05,01,07,42,4.50
2013,05,01,07,43,4.50
2013,05,01,07,44,4.60
2013,05,01,07,45,4.60
2013,05,01,07,46,4.60
2013,05,01,07,47,4.70
2013,05,01,07,48,4.70
2013,05,01,07,49,4.80
2013,05,01,07,50,4.90
2013,05,01,07,51,4.90
2013,05,01,07,52,4.90
2013,05,01,07,53,5.00
2013,05,01,07,54,5.10
2013,05,01,07,55,5.10
2013,05,01,07,56,5.20
2013,05,01,07,57,5.20
2013,05,01,07,58,5.30
2013,05,01,07,59,5.30
2013,05,01,08,00,5.40
2013,05,01,08,01,5.40
2013,05,01,08,02,5.50
2013,05,01,08,03,5.60
2013,05,01,08,04,5.60
2013,05,01,08,05,5.70
2013,05,01,08,06,5.70
2013,05,01,08,07,5.80
2013,05,01,08,08,5.90
2013,05,01,08,09,6.00
2013,05,01,08,10,6.00
2013,05,01,08,11,6.10
2013,05,01,08,12,6.20
2013,05,01,08,13,6.20
2013,05,01,08,14,6.30
2013,05,01,08,15,6.40
2013,05,01,08,16,6.50
2013,05,01,08,17,6.60
2013,05,01,08,18,6.70
2013,05,01,08,19,6.80
2013,05,01,08,20,6.90
2013,05,01,08,21,7.10
2013,05,01,08,22,7.20
2013,05,01,08,23,7.40
2013,05,01,08,24,7.50
2013,05,01,08,25,7.60
2013,05,01,08,26,7.70
2013,05,01,08,27,7.80
2013,05,01,08,28,7.80
2013,05,01,08,29,7.90
2013,05,01,08,30,8.10
2013,05,01,08,31,8.20
2013,05,01,08,32,8.30
2013,05,01,08,33,8.40
2013,05,01,08,34,8.40
2013,05,01,08,35,8.50
2013,05,01,08,36,8.60
2013,05,01,08,37,8.60
2013,05,01,08,38,8.80
2013,05,01,08,39,8.90
2013,05,01,08,40,9.00
2013,05,01,08,41,9.10
2013,05,01,08,42,9.20
2013,05,01,08,43,9.20
2013,05,01,08,44,9.20
2013,05,01,08,45,9.20
2013,05,01,08,46,9.20
2013,05,01,08,47,9.20
2013,05,01,08,48,9.20
2013,05,01,08,49,9.30
2013,05,01,08,50,9.40
2013,05,01,08,51,9.40
2013,05,01,08,52,9.40
2013,05,01,08,53,9.50
2013,05,01,08,54,9.60
2013,05,01,08,55,9.50
2013,05,01,08,56,9.40
2013,05,01,08,57,9.20
2013,05,01,08,58,9.10
2013,05,01,08,59,9.10
2013,05,01,09,00,9.10
2013,05,01,09,01,9.10
2013,05,01,09,02,9.10
2013,05,01,09,03,9.10
2013,05,01,09,04,9.10
2013,05,01,09,05,9.10
2013,05,01,09,06,9.10
2013,05,01,09,07,9.10
2013,05,01,09,08,9.10
2013,05,01,09,09,9.00
2013,05,01,09,10,8.90
2013,05,01,09,11,8.80
2013,05,01,09,12,8.70
2013,05,01,09,13,8.80
2013,05,01,09,14,8.90
2013,05,01,09,15,8.90
2013,05,01,09,16,9.00
2013,05,01,09,17,9.00
2013,05,01,09,18,9.20
2013,05,01,09,19,9.20
2013,05,01,09,20,9.20
2013,05,01,09,21,9.20
2013,05,01,09,22,9.20
2013,05,01,09,23,9.20
2013,05,01,09,24,9.20
2013,05,01,09,25,9.20
2013,05,01,09,26,9.30
2013,05,01,09,27,9.30
2013,05,01,09,28,9.40
2013,05,01,09,29,9.50
2013,05,01,09,30,9.50
2013,05,01,09,31,9.50
2013,05,01,09,32,9.50
2013,05,01,09,33,9.60
2013,05,01,09,34,9.70
2013,05,01,09,35,9.70
2013,05,01,09,36,9.80
2013,05,01,09,37,9.80
2013,05,01,09,38,9.90
2013,05,01,09,39,9.90
2013,05,01,09,40,9.90
2013,05,01,09,41,9.90
2013,05,01,09,42,10.00
2013,05,01,09,43,10.10
2013,05,01,09,44,10.10
2013,05,01,09,45,10.10
2013,05,01,09,46,9.90
2013,05,01,09,47,9.90
2013,05,01,09,48,9.80
2013,05,01,09,49,9.80
2013,05,01,09,50,9.80
2013,05,01,09,51,9.80
2013,05,01,09,52,9.80
2013,05,01,09,53,9.90
2013,05,01,09,54,10.00
2013,05,01,09,55,10.00
2013,05,01,09,56,10.10
2013,05,01,09,57,10.10
2013,05,01,09,58,10.10
2013,05,01,09,59,10.10
2013,05,01,10,00,10.20
2013,05,01,10,01,10.30
2013,05,01,10,02,10.30
2013,05,01,10,03,10.40
2013,05,01,10,04,10.40
2013,05,01,10,05,10.30
2013,05,01,10,06,10.20
2013,05,01,10,07,10.10
2013,05,01,10,08,10.10
2013,05,01,10,09,10.10
2013,05,01,10,10,10.10
2013,05,01,10,11,10.00
2013,05,01,10,12,10.10
2013,05,01,10,13,10.20
2013,05,01,10,14,10.30
2013,05,01,10,15,10.40
2013,05,01,10,16,10.40
2013,05,01,10,17,10.60
2013,05,01,10,18,10.60
2013,05,01,10,19,10.60
2013,05,01,10,20,10.60
2013,05,01,10,21,10.60
2013,05,01,10,22,10.60
2013,05,01,10,23,10.60
2013,05,01,10,24,10.60
2013,05,01,10,25,10.60
2013,05,01,10,26,10.60
2013,05,01,10,27,10.50
2013,05,01,10,28,10.60
2013,05,01,10,29,10.60
2013,05,01,10,30,10.70
2013,05,01,10,31,10.80
2013,05,01,10,32,10.80
2013,05,01,10,33,10.90
2013,05,01,10,34,11.00
2013,05,01,10,35,11.10
2013,05,01,10,36,11.20
2013,05,01,10,37,11.30
2013,05,01,10,38,11.30
2013,05,01,10,39,11.40
2013,05,01,10,40,11.40
2013,05,01,10,41,11.50
2013,05,01,10,42,11.60
2013,05,01,10,43,11.70
2013,05,01,10,44,11.80
2013,05,01,10,45,11.60
2013,05,01,10,46,11.40
2013,05,01,10,47,11.30
2013,05,01,10,48,11.30
2013,05,01,10,49,11.40
2013,05,01,10,50,11.40
2013,05,01,10,51,11.40
2013,05,01,10,52,11.20
2013,05,01,10,53,11.30
2013,05,01,10,54,11.30
2013,05,01,10,55,11.40
2013,05,01,10,56,11.40
2013,05,01,10,57,11.50
2013,05,01,10,58,11.50
2013,05,01,10,59,11.50
2013,05,01,11,00,11.60
2013,05,01,11,01,11.50
2013,05,01,11,02,11.40
2013,05,01,11,03,11.50
2013,05,01,11,04,11.60
2013,05,01,11,05,11.60
2013,05,01,11,06,11.60
2013,05,01,11,07,11.60
2013,05,01,11,08,11.60
2013,05,01,11,09,11.50
2013,05,01,11,10,11.40
2013,05,01,11,11,11.40
2013,05,01,11,12,11.50
2013,05,01,11,13,11.60
2013,05,01,11,14,11.70
2013,05,01,11,15,11.70
2013,05,01,11,16,11.80
2013,05,01,11,17,11.80
2013,05,01,11,18,11.90
2013,05,01,11,19,12.00
2013,05,01,11,20,12.10
2013,05,01,11,21,12.20
2013,05,01,11,22,12.30
2013,05,01,11,23,12.20
2013,05,01,11,24,12.30
2013,05,01,11,25,12.40
2013,05,01,11,26,12.40
2013,05,01,11,27,12.40
2013,05,01,11,28,12.40
2013,05,01,11,29,12.50
2013,05,01,11,30,12.50
2013,05,01,11,31,12.40
2013,05,01,11,32,12.40
2013,05,01,11,33,12.50
2013,05,01,11,34,12.50
2013,05,01,11,35,12.40
2013,05,01,11,36,12.10
2013,05,01,11,37,12.00
2013,05,01,11,38,11.90
2013,05,01,11,39,11.80
2013,05,01,11,40,11.80
2013,05,01,11,41,11.80
2013,05,01,11,42,11.70
2013,05,01,11,43,11.80
2013,05,01,11,44,11.90
2013,05,01,11,45,12.00
2013,05,01,11,46,12.20
2013,05,01,11,47,12.20
2013,05,01,11,48,12.20
2013,05,01,11,49,12.30
2013,05,01,11,50,12.30
2013,05,01,11,51,12.20
2013,05,01,11,52,12.20
2013,05,01,11,53,12.20
2013,05,01,11,54,12.30
2013,05,01,11,55,12.40
2013,05,01,11,56,12.40
2013,05,01,11,57,12.40
2013,05,01,11,58,12.30
2013,05,01,11,59,12.30
2013,05,01,12,00,12.30
2013,05,01,12,01,12.20
2013,05,01,12,02,12.30
2013,05,01,12,03,12.30
2013,05,01,12,04,12.50
2013,05,01,12,05,12.60
2013,05,01,12,06,12.70
2013,05,01,12,07,12.70
2013,05,01,12,08,12.80
2013,05,01,12,09,12.80
2013,05,01,12,10,12.70
2013,05,01,12,11,12.60
2013,05,01,12,12,12.50
2013,05,01,12,13,12.50
2013,05,01,12,14,12.40
2013,05,01,12,15,12.40
2013,05,01,12,16,12.30
2013,05,01,12,17,12.10
2013,05,01,12,18,12.30
2013,05,01,12,19,12.50
2013,05,01,12,20,12.70
2013,05,01,12,21,12.80
2013,05,01,12,22,12.90
2013,05,01,12,23,12.90
2013,05,01,12,24,13.10
2013,05,01,12,25,13.20
2013,05,01,12,26,13.30
2013,05,01,12,27,13.20
2013,05,01,12,28,13.20
2013,05,01,12,29,13.30
2013,05,01,12,30,13.50
2013,05,01,12,31,13.60
2013,05,01,12,32,13.60
2013,05,01,12,33,13.40
2013,05,01,12,34,13.40
2013,05,01,12,35,13.40
2013,05,01,12,36,13.40
2013,05,01,12,37,13.60
2013,05,01,12,38,13.70
2013,05,01,12,39,13.60
2013,05,01,12,40,13.50
2013,05,01,12,41,13.40
2013,05,01,12,42,13.30
2013,05,01,12,43,13.10
2013,05,01,12,44,13.00
2013,05,01,12,45,13.00
2013,05,01,12,46,13.10
2013,05,01,12,47,13.40
2013,05,01,12,48,13.50
2013,05,01,12,49,13.70
2013,05,01,12,50,13.60
2013,05,01,12,51,13.60
2013,05,01,12,52,13.60
2013,05,01,12,53,13.70
2013,05,01,12,54,13.70
2013,05,01,12,55,13.80
2013,05,01,12,56,13.80
2013,05,01,12,57,13.80
2013,05,01,12,58,13.80
2013,05,01,12,59,13.70
2013,05,01,13,00,13.70
2013,05,01,13,01,13.80
2013,05,01,13,02,13.80
2013,05,01,13,03,13.90
2013,05,01,13,04,13.80
2013,05,01,13,05,13.80
2013,05,01,13,06,13.80
2013,05,01,13,07,13.80
2013,05,01,13,08,13.90
2013,05,01,13,09,13.90
2013,05,01,13,10,14.00
2013,05,01,13,11,14.20
2013,05,01,13,12,14.30
2013,05,01,13,13,14.40
2013,05,01,13,14,14.30
2013,05,01,13,15,14.20
2013,05,01,13,16,14.00
2013,05,01,13,17,14.00
2013,05,01,13,18,14.00
2013,05,01,13,19,14.00
2013,05,01,13,20,14.10
2013,05,01,13,21,14.20
2013,05,01,13,22,14.10
2013,05,01,13,23,14.10
2013,05,01,13,24,14.10
2013,05,01,13,25,14.00
2013,05,01,13,26,14.00
2013,05,01,13,27,14.00
2013,05,01,13,28,14.10
2013,05,01,13,29,14.20
2013,05,01,13,30,14.00
2013,05,01,13,31,14.00
2013,05,01,13,32,14.00
2013,05,01,13,33,14.00
2013,05,01,13,34,14.00
2013,05,01,13,35,14.00
2013,05,01,13,36,14.10
2013,05,01,13,37,14.10
2013,05,01,13,38,14.10
2013,05,01,13,39,14.10
2013,05,01,13,40,14.20
2013,05,01,13,41,14.20
2013,05,01,13,42,14.20
2013,05,01,13,43,14.20
2013,05,01,13,44,14.20
2013,05,01,13,45,14.30
2013,05,01,13,46,14.30
2013,05,01,13,47,14.40
2013,05,01,13,48,14.50
2013,05,01,13,49,14.50
2013,05,01,13,50,14.50
2013,05,01,13,51,14.50
2013,05,01,13,52,14.50
2013,05,01,13,53,14.60
2013,05,01,13,54,14.80
2013,05,01,13,55,14.80
2013,05,01,13,56,14.80
2013,05,01,13,57,15.00
2013,05,01,13,58,15.00
2013,05,01,13,59,15.10
2013,05,01,14,00,14.90
2013,05,01,14,01,14.70
2013,05,01,14,02,14.70
2013,05,01,14,03,14.80
2013,05,01,14,04,14.80
2013,05,01,14,05,15.00
2013,05,01,14,06,15.10
2013,05,01,14,07,15.10
2013,05,01,14,08,15.10
2013,05,01,14,09,15.20
2013,05,01,14,10,15.10
2013,05,01,14,11,15.10
2013,05,01,14,12,15.10
2013,05,01,14,13,15.00
2013,05,01,14,14,15.00
2013,05,01,14,15,14.90
2013,05,01,14,16,14.80
2013,05,01,14,17,14.80
2013,05,01,14,18,14.90
2013,05,01,14,19,15.00
2013,05,01,14,20,15.10
2013,05,01,14,21,15.00
2013,05,01,14,22,15.10
2013,05,01,14,23,15.10
2013,05,01,14,24,15.10
2013,05,01,14,25,14.90
2013,05,01,14,26,14.80
2013,05,01,14,27,14.80
2013,05,01,14,28,14.90
2013,05,01,14,29,15.00
2013,05,01,14,30,15.30
2013,05,01,14,31,15.40
2013,05,01,14,32,15.40
2013,05,01,14,33,15.50
2013,05,01,14,34,15.60
2013,05,01,14,35,15.60
2013,05,01,14,36,15.40
2013,05,01,14,37,15.40
2013,05,01,14,38,15.10
2013,05,01,14,39,15.00
2013,05,01,14,40,15.10
2013,05,01,14,41,15.30
2013,05,01,14,42,15.40
2013,05,01,14,43,15.40
2013,05,01,14,44,15.40
2013,05,01,14,45,15.20
2013,05,01,14,46,15.00
2013,05,01,14,47,14.90
2013,05,01,14,48,14.90
2013,05,01,14,49,14.60
2013,05,01,14,50,14.60
2013,05,01,14,51,14.70
2013,05,01,14,52,14.80
2013,05,01,14,53,14.80
2013,05,01,14,54,14.80
2013,05,01,14,55,14.80
2013,05,01,14,56,14.80
2013,05,01,14,57,14.80
2013,05,01,14,58,14.80
2013,05,01,14,59,14.70
2013,05,01,15,00,14.60
2013,05,01,15,01,14.50
2013,05,01,15,02,14.40
2013,05,01,15,03,14.30
2013,05,01,15,04,14.40
2013,05,01,15,05,14.50
2013,05,01,15,06,14.60
2013,05,01,15,07,14.80
2013,05,01,15,08,14.90
2013,05,01,15,09,14.90
2013,05,01,15,10,14.80
2013,05,01,15,11,14.80
2013,05,01,15,12,14.80
2013,05,01,15,13,14.80
2013,05,01,15,14,14.80
2013,05,01,15,15,14.90
2013,05,01,15,16,15.20
2013,05,01,15,17,15.30
2013,05,01,15,18,15.20
2013,05,01,15,19,15.10
2013,05,01,15,20,15.10
2013,05,01,15,21,15.20
2013,05,01,15,22,15.20
2013,05,01,15,23,15.20
2013,05,01,15,24,15.30
2013,05,01,15,25,15.40
2013,05,01,15,26,15.40
2013,05,01,15,27,15.60
2013,05,01,15,28,15.80
2013,05,01,15,29,15.70
2013,05,01,15,30,15.60
2013,05,01,15,31,15.50
2013,05,01,15,32,15.40
2013,05,01,15,33,15.30
2013,05,01,15,34,15.20
2013,05,01,15,35,15.10
2013,05,01,15,36,15.00
2013,05,01,15,37,15.00
2013,05,01,15,38,15.10
2013,05,01,15,39,15.00
2013,05,01,15,40,15.00
2013,05,01,15,41,15.20
2013,05,01,15,42,15.30
2013,05,01,15,43,15.50
2013,05,01,15,44,15.60
2013,05,01,15,45,15.60
2013,05,01,15,46,15.60
2013,05,01,15,47,15.50
2013,05,01,15,48,15.60
2013,05,01,15,49,15.60
2013,05,01,15,50,15.70
2013,05,01,15,51,15.90
2013,05,01,15,52,15.90
2013,05,01,15,53,15.90
2013,05,01,15,54,16.00
2013,05,01,15,55,15.90
2013,05,01,15,56,15.80
2013,05,01,15,57,15.80
2013,05,01,15,58,15.80
2013,05,01,15,59,15.80
2013,05,01,16,00,16.00
2013,05,01,16,01,16.00
2013,05,01,16,02,16.00
2013,05,01,16,03,16.10
2013,05,01,16,04,16.20
2013,05,01,16,05,16.30
2013,05,01,16,06,16.40
2013,05,01,16,07,16.50
2013,05,01,16,08,16.40
2013,05,01,16,09,16.40
2013,05,01,16,10,16.40
2013,05,01,16,11,16.50
2013,05,01,16,12,16.50
2013,05,01,16,13,16.40
2013,05,01,16,14,16.40
2013,05,01,16,15,16.30
2013,05,01,16,16,16.10
2013,05,01,16,17,16.10
2013,05,01,16,18,16.10
2013,05,01,16,19,16.00
2013,05,01,16,20,15.80
2013,05,01,16,21,15.70
2013,05,01,16,22,15.70
2013,05,01,16,23,15.60
2013,05,01,16,24,15.50
2013,05,01,16,25,15.50
2013,05,01,16,26,15.50
2013,05,01,16,27,15.50
2013,05,01,16,28,15.50
2013,05,01,16,29,15.40
2013,05,01,16,30,15.40
2013,05,01,16,31,15.30
2013,05,01,16,32,15.40
2013,05,01,16,33,15.40
2013,05,01,16,34,15.30
2013,05,01,16,35,15.00
2013,05,01,16,36,14.80
2013,05,01,16,37,14.70
2013,05,01,16,38,14.50
2013,05,01,16,39,14.30
2013,05,01,16,40,14.20
2013,05,01,16,41,14.20
2013,05,01,16,42,14.20
2013,05,01,16,43,14.00
2013,05,01,16,44,13.90
2013,05,01,16,45,13.70
2013,05,01,16,46,13.60
2013,05,01,16,47,13.60
2013,05,01,16,48,13.60
2013,05,01,16,49,13.60
2013,05,01,16,50,13.70
2013,05,01,16,51,13.60
2013,05,01,16,52,13.70
2013,05,01,16,53,13.60
2013,05,01,16,54,13.60
2013,05,01,16,55,13.50
2013,05,01,16,56,13.50
2013,05,01,16,57,13.50
2013,05,01,16,58,13.50
2013,05,01,16,59,13.50
2013,05,01,17,00,13.50
2013,05,01,17,01,13.50
2013,05,01,17,02,13.50
2013,05,01,17,03,13.50
2013,05,01,17,04,13.50
2013,05,01,17,05,13.50
2013,05,01,17,06,13.50
2013,05,01,17,07,13.60
2013,05,01,17,08,13.50
2013,05,01,17,09,13.60
2013,05,01,17,10,13.70
2013,05,01,17,11,13.70
2013,05,01,17,12,13.70
2013,05,01,17,13,13.70
2013,05,01,17,14,13.70
2013,05,01,17,15,13.70
2013,05,01,17,16,13.70
2013,05,01,17,17,13.60
2013,05,01,17,18,13.50
2013,05,01,17,19,13.40
2013,05,01,17,20,13.30
2013,05,01,17,21,13.30
2013,05,01,17,22,13.30
2013,05,01,17,23,13.20
2013,05,01,17,24,13.20
2013,05,01,17,25,13.20
2013,05,01,17,26,13.30
2013,05,01,17,27,13.30
2013,05,01,17,28,13.40
2013,05,01,17,29,13.40
2013,05,01,17,30,13.50
2013,05,01,17,31,13.50
2013,05,01,17,32,13.50
2013,05,01,17,33,13.60
2013,05,01,17,34,13.60
2013,05,01,17,35,13.60
2013,05,01,17,36,13.50
2013,05,01,17,37,13.50
2013,05,01,17,38,13.50
2013,05,01,17,39,13.40
2013,05,01,17,40,13.40
2013,05,01,17,41,13.50
2013,05,01,17,42,13.50
2013,05,01,17,43,13.50
2013,05,01,17,44,13.40
2013,05,01,17,45,13.30